Probability
16 16 13 13 13 10 13 10 3 6 10 10 10 10 10 6 6 10 10 10 6 6 6 10 6 0 0 3 3 0 0 0 0 0 0 0 0 0 0 0 0 0 0
16 10 10 10 10 6 6 3 6 3 6 10 10 10 10 6 6 6 3 3 6 6 6 6 6 3 0 0 6 6 0 0 0 0 0 0 0 0 0 0 0 0 0
10 10 10 10 13 13 6 3 3 6 10 10 10 10 10 3 6 3 3 6 3 3 6 3 3 3 0 0 0 3 0 0 0 0 0 0 0 0 0 0 0 0 0
6 3 10 10 10 10 10 6 6 6 10 10 10 10 10 10 6 3 3 3 6 6 3 3 3 3 3 0 0 0 3 0 0 0 0 0 0 0 0 0 0 0 0
6 10 6 3 6 6 6 6 6 6 10 10 10 10 10 10 3 0 0 0 0 3 3 3 3 3 3 0 0 0 0 0 0 0 0 0 0 0 0 0 0 0 0
10 6 6 3 3 6 6 6 6 6 6 6 10 10 10 6 3 3 3 0 0 0 3 3 3 0 0 0 0 0 0 0 0 0 0 0 0 0 0 0 0 0 0
6 6 6 6 3 6 3 6 6 6 6 6 6 6 6 6 3 3 3 3 0 0 0 0 0 0 0 0 0 0 0 0 0 0 0 0 0 0 0 0 0 0 0
3 6 6 6 6 3 6 6 6 6 6 6 6 6 6 6 6 3 0 0 0 0 0 0 0 0 0 0 0 0 0 0 0 0 0 0 0 0 0 0 0 0 0
6 6 3 3 3 3 6 6 6 6 6 6 6 3 3 0 0 0 0 0 0 0 0 0 0 0 0 0 0 0 0 0 0 0 0 0 0 0 0 0 0 0 0
6 6 3 3 3 3 0 3 3 3 3 3 3 3 0 0 0 0 0 0 0 0 0 0 0 0 0 0 0 0 0 0 0 0 0 0 0 0 0 0 0 0 0
3 0 0 0 0 0 0 3 3 3 3 3 0 0 0 0 0 0 0 0 0 0 0 0 0 0 0 0 0 0 0 0 0 0 0 0 0 0 0 0 0 0 0
3 0 0 0 0 0 0 3 3 3 0 0 0 0 0 0 0 0 0 0 0 0 0 0 0 0 0 0 0 0 0 0 0 0 0 0 0 0 0 0 0 0 0
0 0 0 0 0 0 0 0 0 0 0 0 0 0 0 0 0 0 0 0 0 0 0 0 0 0 0 0 0 0 0 0 0 0 0 0 0 0 0 0 0 0 0
0 0 0 0 0 0 3 0 0 0 0 0 0 0 0 0 0 0 0 0 0 0 0 0 0 0 0 0 0 0 0 0 0 0 0 0 0 0 0 0 0 0 0
0 0 0 3 0 0 0 0 0 0 0 0 0 0 0 0 0 0 0 0 0 0 0 0 0 0 0 0 0 0 0 0 0 0 0 0 0 0 0 0 0 0 0
0 0 0 0 0 0 0 0 0 0 0 0 0 0 0 0 0 0 0 0 0 0 0 0 0 0 0 0 0 0 0 0 0 0 0 0 0 0 0 0 0 0 0
0 0 0 0 0 0 0 0 0 0 0 0 0 0 0 0 0 0 0 0 0 0 0 0 0 0 0 0 0 0 0 0 0 0 0 0 0 0 0 0 0 0 0
0 0 0 0 0 0 0 0 0 0 0 0 0 0 0 0 0 0 0 0 0 0 0 0 0 0 0 0 0 0 0 0 0 0 0 0 0 0 0 0 0 0 0
0 0 0 0 0 0 0 0 0 0 0 0 0 0 0 0 0 0 0 0 0 0 0 0 0 0 0 0 0 0 0 0 0 0 0 0 0 0 0 0 0 0 0
0 0 0 0 0 0 0 0 0 0 0 0 0 0 0 0 0 0 0 0 0 0 0 0 0 0 0 0 0 0 0 0 0 0 0 0 0 0 0 0 0 0 0
0 0 0 0 0 0 0 0 0 0 0 0 0 0 0 0 0 0 0 0 0 0 0 0 0 0 0 0 0 0 0 0 0 0 0 0 0 0 0 0 0 0 0
0 0 0 0 0 0 0 0 0 0 0 0 0 0 0 0 0 0 0 0 0 0 0 0 0 0 0 0 0 0 0 0 0 0 0 0 0 0 0 0 0 0 0
0 0 0 0 0 0 0 0 0 0 0 0 0 0 0 0 0 0 0 0 0 0 0 0 0 0 0 0 0 0 0 0 0 0 0 0 0 0 0 0 0 0 0
0 0 0 0 0 0 0 0 0 0 0 0 0 0 0 0 0 0 0 0 0 0 0 0 0 0 0 0 0 0 0 0 0 0 0 0 0 0 0 0 0 0 0
0 0 0 0 0 0 0 0 0 0 0 0 0 0 0 0 0 0 0 0 0 0 0 0 0 0 0 0 0 0 0 0 0 0 0 0 0 0 0 0 0 0 0
0 0 0 0 0 0 0 0 0 0 0 0 0 0 0 0 0 0 0 0 0 0 0 0 0 0 0 0 0 0 0 0 0 0 0 0 0 0 0 0 0 0 0
Height
5856 5855 5854 5853 5852 5850 5849 5847 5845 5844 5842 5840 5839 5838 5837 5836 5834 5833 5832 5830 5828 5827 5825 5824 5822 5821 5820 5819 5818 5817 5816 5816 5816 5816 5816 5816 5817 5818 5818 5819 5820 5822 5823
5853 5851 5850 5848 5847 5845 5844 5842 5840 5839 5837 5836 5835 5833 5831 5830 5828 5827 5826 5824 5822 5821 5819 5817 5816 5814 5813 5812 5811 5810 5809 5809 5808 5808 5808 5809 5810 5810 5810 5811 5813 5814 5815
5849 5847 5846 5844 5842 5840 5839 5837 5835 5834 5832 5831 5829 5828 5826 5824 5822 5821 5819 5817 5815 5814 5812 5810 5809 5807 5806 5805 5804 5803 5802 5801 5801 5800 5800 5800 5801 5802 5803 5803 5804 5806 5807
5844 5843 5841 5839 5838 5836 5834 5832 5830 5828 5827 5825 5823 5821 5819 5817 5816 5814 5812 5810 5807 5806 5804 5803 5801 5799 5798 5797 5796 5795 5794 5793 5793 5792 5792 5792 5792 5793 5794 5795 5796 5797 5799
5840 5838 5836 5834 5833 5831 5829 5827 5825 5824 5821 5819 5817 5815 5813 5811 5809 5807 5804 5802 5800 5799 5797 5795 5794 5792 5790 5789 5788 5787 5786 5785 5784 5783 5783 5783 5784 5784 5785 5787 5788 5789 5791
5834 5832 5830 5829 5828 5826 5824 5822 5820 5818 5816 5813 5811 5809 5807 5804 5802 5799 5797 5795 5793 5791 5789 5788 5786 5784 5783 5781 5780 5778 5777 5776 5775 5775 5775 5775 5775 5775 5776 5778 5780 5781 5782
5828 5827 5825 5824 5822 5821 5819 5817 5815 5812 5810 5807 5805 5802 5799 5797 5795 5792 5790 5788 5786 5784 5782 5780 5778 5776 5775 5773 5772 5770 5769 5768 5767 5767 5766 5766 5766 5767 5768 5769 5771 5773 5775
5824 5822 5821 5819 5817 5815 5813 5811 5809 5806 5804 5801 5798 5796 5793 5791 5788 5786 5783 5781 5778 5776 5774 5772 5770 5769 5767 5765 5764 5763 5762 5761 5760 5759 5759 5758 5758 5759 5760 5761 5763 5765 5767
5819 5817 5816 5814 5812 5809 5807 5805 5803 5800 5798 5795 5792 5790 5787 5784 5782 5779 5776 5774 5771 5769 5767 5765 5763 5761 5759 5758 5757 5756 5754 5754 5753 5752 5752 5751 5752 5752 5753 5753 5755 5757 5759
5814 5812 5810 5808 5806 5803 5801 5799 5797 5794 5792 5789 5787 5784 5781 5779 5776 5773 5770 5768 5765 5762 5760 5758 5756 5754 5753 5751 5750 5749 5748 5747 5746 5746 5745 5745 5745 5745 5746 5747 5748 5749 5751
5808 5806 5804 5802 5799 5797 5795 5793 5791 5789 5786 5784 5782 5779 5776 5774 5771 5768 5765 5762 5759 5756 5754 5752 5750 5748 5746 5745 5743 5743 5742 5741 5741 5740 5740 5739 5739 5739 5740 5740 5741 5742 5744
5803 5801 5799 5796 5794 5792 5790 5788 5786 5784 5781 5779 5776 5774 5771 5769 5766 5763 5760 5757 5754 5751 5749 5747 5744 5742 5741 5739 5738 5737 5737 5736 5735 5735 5734 5734 5733 5733 5734 5734 5735 5736 5737
5798 5796 5793 5791 5789 5787 5785 5783 5781 5779 5776 5774 5771 5769 5767 5765 5762 5759 5756 5753 5750 5747 5745 5743 5740 5738 5736 5735 5734 5733 5732 5731 5730 5730 5729 5729 5729 5729 5729 5729 5730 5731 5732
5793 5790 5788 5786 5784 5782 5780 5778 5776 5774 5771 5769 5767 5765 5763 5761 5758 5755 5752 5750 5747 5744 5742 5739 5737 5735 5733 5731 5730 5729 5728 5727 5726 5726 5726 5725 5725 5725 5725 5725 5725 5726 5727
5788 5786 5783 5781 5779 5777 5775 5773 5771 5769 5767 5765 5763 5761 5759 5757 5755 5752 5749 5746 5744 5741 5739 5737 5734 5732 5729 5728 5726 5725 5724 5724 5723 5723 5722 5722 5722 5721 5721 5721 5722 5722 5723
5783 5781 5779 5777 5775 5773 5771 5769 5767 5765 5763 5762 5760 5758 5756 5754 5752 5749 5747 5744 5741 5739 5736 5734 5732 5729 5727 5725 5724 5723 5721 5721 5720 5720 5719 5719 5719 5718 5718 5718 5719 5719 5720
5778 5776 5774 5772 5770 5769 5767 5765 5764 5762 5760 5759 5757 5755 5753 5751 5749 5747 5744 5742 5739 5737 5734 5732 5730 5728 5725 5724 5722 5720 5719 5718 5718 5717 5717 5717 5716 5716 5715 5716 5716 5717 5717
5774 5772 5770 5768 5766 5765 5763 5762 5760 5759 5757 5756 5754 5753 5751 5749 5747 5744 5742 5740 5737 5735 5733 5731 5729 5726 5724 5722 5721 5719 5718 5717 5716 5716 5715 5715 5715 5714 5714 5714 5715 5715 5716
5770 5768 5766 5764 5762 5761 5760 5759 5757 5756 5755 5753 5752 5750 5748 5747 5745 5742 5740 5738 5736 5734 5732 5730 5728 5726 5724 5722 5720 5719 5718 5716 5715 5715 5714 5714 5714 5714 5713 5714 5714 5715 5715
5767 5765 5762 5761 5759 5758 5757 5756 5755 5754 5752 5751 5749 5748 5746 5744 5743 5741 5739 5737 5735 5733 5731 5729 5727 5725 5724 5722 5720 5719 5718 5717 5716 5715 5714 5714 5714 5714 5714 5714 5715 5715 5716
5764 5762 5760 5759 5757 5756 5755 5754 5753 5752 5750 5749 5748 5746 5745 5743 5741 5740 5738 5736 5735 5733 5731 5729 5727 5726 5724 5722 5721 5719 5718 5717 5716 5716 5715 5715 5714 5714 5714 5715 5715 5716 5716
5761 5760 5758 5757 5756 5755 5753 5752 5751 5750 5749 5748 5747 5745 5744 5743 5741 5739 5738 5736 5735 5733 5731 5730 5728 5726 5724 5723 5722 5720 5719 5718 5717 5717 5716 5716 5716 5716 5716 5716 5716 5717 5717
5760 5759 5757 5756 5755 5754 5753 5752 5750 5749 5748 5748 5746 5745 5744 5742 5741 5739 5738 5736 5735 5733 5732 5730 5728 5727 5725 5724 5723 5722 5721 5720 5719 5719 5718 5718 5718 5718 5718 5718 5718 5718 5718
5759 5758 5757 5756 5755 5753 5753 5752 5751 5749 5748 5748 5747 5745 5744 5742 5741 5740 5738 5737 5735 5734 5732 5731 5729 5728 5727 5726 5725 5723 5722 5721 5721 5720 5720 5719 5719 5719 5719 5719 5719 5719 5719
5759 5758 5756 5755 5755 5754 5753 5752 5751 5750 5749 5748 5747 5745 5744 5743 5742 5740 5739 5738 5736 5735 5734 5732 5731 5729 5728 5727 5726 5725 5724 5723 5723 5722 5721 5721 5721 5721 5721 5720 5720 5720 5720
5759 5758 5757 5756 5755 5754 5754 5753 5752 5751 5750 5749 5748 5746 5745 5744 5743 5741 5740 5739 5737 5736 5735 5733 5732 5730 5729 5728 5728 5727 5726 5725 5725 5724 5723 5723 5723 5722 5722 5721 5721 5721 5720
Wind_Speed
19 20 19 19 19 20 22 21 21 21 22 23 23 22 23 25 25 24 24 24 25 25 25 26 26 26 27 27 27 27 26 26 26 27 28 28 28 29 29 29 29 28 28
20 20 20 20 20 21 22 23 22 22 22 23 23 23 24 25 24 25 26 26 27 27 27 27 27 27 27 28 28 27 27 27 27 27 28 29 30 30 30 30 30 30 29
21 21 20 21 21 22 22 23 23 23 24 24 25 25 25 25 25 26 26 27 28 28 27 27 27 27 27 27 28 28 28 27 27 28 28 28 29 31 31 31 31 31 30
21 21 21 21 22 22 23 23 23 24 25 25 26 26 27 26 27 28 28 28 28 28 27 27 27 28 27 27 28 28 28 28 29 29 29 29 29 31 31 31 31 31 30
22 22 22 23 23 23 23 23 23 24 25 27 27 27 27 27 28 28 29 28 28 28 28 28 28 28 28 28 28 28 28 28 29 29 30 30 30 31 31 31 31 31 31
22 23 23 23 23 22 23 24 24 25 25 26 26 26 26 26 27 27 28 28 28 28 28 29 28 28 28 28 28 28 28 28 29 29 29 30 30 30 31 30 30 30 31
22 22 22 23 23 23 23 24 24 25 25 25 26 26 25 25 26 27 27 27 27 28 28 28 28 28 28 28 28 28 27 27 27 27 27 28 29 29 29 29 30 30 30
21 22 23 23 23 24 24 24 23 23 24 24 24 24 24 24 25 25 26 27 27 28 28 28 28 28 28 27 27 26 26 25 25 25 25 26 27 28 27 28 29 29 29
21 22 23 23 24 24 24 24 23 22 22 22 22 23 22 23 24 24 25 25 26 26 26 26 26 26 26 25 25 25 24 24 24 24 24 25 26 27 27 27 28 28 28
22 22 22 23 24 24 24 23 22 22 22 21 21 21 20 21 22 22 23 24 24 24 24 24 24 24 23 23 23 23 22 21 21 22 22 22 23 24 25 26 27 27 27
22 22 22 23 23 22 22 23 22 21 21 21 20 19 19 20 21 22 22 22 21 21 21 22 22 22 21 21 21 20 20 20 20 20 20 21 21 22 23 24 24 24 24
22 22 21 21 21 21 21 22 21 20 20 19 19 19 19 19 20 19 19 19 19 20 20 20 20 20 20 19 19 18 18 18 18 17 17 18 18 19 19 20 21 21 21
21 21 20 20 20 20 20 19 19 19 19 18 17 17 17 17 17 17 18 18 18 18 18 19 19 18 17 17 17 17 16 16 16 15 15 15 15 16 17 17 18 19 19
20 19 19 19 19 19 19 18 17 17 17 16 15 15 15 15 16 16 16 17 17 16 16 15 15 15 14 14 14 14 15 15 14 14 13 14 13 13 14 15 15 15 16
20 19 18 18 17 17 16 16 16 15 14 14 14 14 14 15 15 15 15 16 15 15 15 14 13 13 13 13 13 13 13 13 13 12 12 13 12 12 12 12 13 13 13
19 19 18 17 17 16 15 15 14 13 12 12 13 13 14 14 14 14 14 14 14 14 13 12 12 12 12 12 11 11 11 10 10 10 11 11 11 11 10 10 11 11 12
18 18 17 17 16 15 15 13 12 12 11 11 12 12 12 12 13 13 13 13 12 12 11 11 11 11 11 10 10 9 9 8 8 8 8 9 9 8 8 8 8 8 9
16 16 16 15 15 13 12 11 11 11 10 10 11 11 11 12 12 13 13 12 11 10 10 10 11 10 10 9 9 8 6 6 6 5 5 6 6 5 5 5 5 5 5
15 15 14 13 12 11 10 9 9 8 8 8 9 9 10 10 11 11 11 10 9 9 9 9 10 9 9 8 8 7 6 5 4 3 3 3 3 3 2 2 2 3 3
13 12 11 10 9 8 7 7 7 7 7 7 8 8 9 9 10 10 10 9 9 9 9 9 9 9 8 8 7 7 5 5 4 4 4 3 1 1 1 1 0 0 1
11 10 9 7 7 6 6 6 6 6 6 6 7 7 7 8 8 8 9 8 8 8 8 8 8 8 7 7 7 6 5 4 4 4 4 3 3 3 2 2 1 1 0
9 8 7 6 6 6 5 5 5 5 5 5 5 6 6 7 8 8 8 8 7 8 8 8 7 7 7 7 7 6 5 4 4 4 4 3 4 4 3 2 2 1 1
8 7 6 6 6 5 5 4 4 4 4 4 5 5 6 6 7 7 8 8 8 8 8 8 7 7 6 7 7 7 6 5 5 4 3 3 3 3 3 3 2 2 2
7 6 6 6 5 4 4 4 4 4 4 5 5 6 6 6 7 7 8 8 8 8 8 7 7 7 7 6 6 7 7 6 6 5 4 4 3 3 4 4 3 3 3
7 6 6 5 4 4 4 4 4 5 5 5 6 6 6 6 7 7 8 8 8 9 8 8 7 7 7 7 7 6 6 6 6 6 5 4 4 3 3 3 3 3 3
7 7 6 5 5 5 5 5 5 5 5 5 6 6 6 6 6 6 7 8 8 8 8 8 8 7 6 7 7 6 6 6 6 5 4 4 3 3 2 2 3 3 3
Wind_Direction
292 292 291 288 289 288 288 289 290 292 292 293 287 285 285 284 284 284 285 287 288 287 285 285 284 283 279 278 278 277 275 272 269 266 265 263 262 260 259 258 256 256 256
293 292 291 290 292 292 291 289 289 291 292 291 286 285 285 285 284 284 285 287 287 286 285 284 285 284 280 278 278 277 276 273 269 266 264 263 262 262 261 258 257 257 255
291 293 292 291 292 294 293 292 289 290 291 291 289 285 284 284 286 287 288 288 287 286 285 284 284 284 281 279 277 276 275 273 269 266 265 264 263 262 260 258 258 257 255
290 292 293 291 292 293 294 293 292 291 292 291 291 287 285 284 286 288 289 290 290 287 285 285 285 285 281 279 278 277 276 274 271 268 266 264 263 260 259 260 259 257 255
290 292 292 292 292 291 292 293 295 294 292 291 291 292 287 286 287 288 290 290 290 287 285 284 284 285 283 280 277 276 276 274 272 268 266 266 264 262 259 257 257 257 255
290 290 289 289 292 292 293 294 296 294 293 293 293 294 290 289 289 290 290 290 288 287 286 286 285 284 283 281 279 276 276 274 272 269 268 266 265 263 260 257 253 253 255
289 289 292 293 293 292 292 293 294 294 294 294 295 296 292 293 292 292 291 290 288 287 288 287 285 285 283 282 280 278 276 274 273 271 269 266 264 262 260 257 254 253 253
289 289 289 290 291 291 291 291 293 296 295 295 296 297 295 294 294 293 293 291 289 287 286 285 286 285 283 282 281 279 277 275 273 272 269 266 264 261 259 257 255 253 252
289 288 288 288 290 289 290 291 293 294 295 296 297 298 295 296 297 296 295 293 291 288 286 286 285 285 283 281 280 279 279 277 274 272 269 266 264 261 259 258 256 254 253
289 288 289 290 289 289 290 293 294 295 298 297 298 299 298 300 302 302 300 298 296 293 289 289 288 287 285 282 281 279 277 276 274 273 270 268 266 264 260 258 257 256 256
291 292 291 291 290 289 289 292 294 296 299 299 298 299 300 303 304 304 303 303 301 298 295 293 292 289 287 284 282 279 275 273 273 273 271 269 268 266 262 260 258 257 256
292 291 290 290 288 289 289 291 293 295 298 300 298 299 300 303 305 305 307 308 305 301 298 297 295 293 289 285 281 277 276 274 273 273 273 271 270 268 266 261 257 256 255
292 293 291 288 289 291 291 291 292 296 298 299 301 301 302 303 306 308 309 312 310 304 302 301 300 296 292 286 284 280 277 277 276 276 275 275 272 270 266 263 260 257 254
297 296 295 295 294 294 293 291 292 295 298 299 301 302 304 307 310 311 312 314 314 311 310 310 308 304 296 292 290 286 284 281 278 278 277 276 275 273 268 266 262 258 254
298 297 297 296 297 297 299 294 294 295 297 299 301 303 305 309 314 317 316 315 315 315 314 316 317 314 309 301 294 289 290 285 282 280 278 275 276 277 275 270 261 257 255
299 296 296 296 296 297 299 300 299 300 300 301 303 305 307 309 313 316 319 319 319 319 319 320 323 320 316 312 304 293 292 287 285 280 275 275 277 279 279 272 261 255 254
300 298 297 297 297 298 298 299 298 299 299 299 302 306 309 313 317 320 324 326 326 323 324 324 323 324 326 324 319 309 297 294 292 282 277 280 285 283 279 272 264 257 250
303 302 300 300 300 297 297 298 300 300 302 304 305 308 312 316 320 324 327 332 334 331 330 331 331 330 334 335 336 333 321 307 301 296 295 295 290 289 283 273 269 262 257
309 308 304 302 302 300 298 299 303 305 306 307 309 314 319 322 324 328 332 336 337 336 337 338 339 343 345 345 347 350 350 349 348 341 334 325 306 287 282 286 282 270 265
313 313 310 308 307 306 304 303 306 310 312 313 318 323 327 328 327 331 338 339 340 344 347 348 351 355 356 356 358 1 5 12 18 19 15 18 31 72 69 47 59 258 242
317 318 320 320 320 319 315 311 309 316 322 325 327 333 337 337 337 341 347 349 349 351 354 357 357 358 359 3 4 5 11 21 26 28 33 47 72 85 87 90 93 95 82
326 328 327 329 331 331 328 323 322 327 334 336 340 344 349 345 350 355 358 1 1 360 1 2 2 7 14 13 14 17 21 25 32 37 45 61 71 76 74 76 79 81 16
337 339 341 342 342 344 347 350 351 353 0 356 353 354 358 359 358 359 4 7 6 2 3 6 9 13 17 18 22 26 27 35 40 47 54 63 59 54 46 40 44 47 21
351 355 357 356 359 3 4 7 11 19 15 7 2 5 10 11 2 2 5 9 9 6 5 7 12 16 17 19 24 28 31 36 39 42 45 48 46 43 40 38 37 39 27
5 3 3 9 15 18 14 17 17 10 5 6 8 13 14 12 13 11 10 11 11 12 13 12 10 13 19 22 24 27 28 35 37 38 44 47 39 37 32 27 37 31 20
15 19 21 28 31 27 26 24 24 22 17 14 17 15 17 16 15 11 9 9 9 10 10 12 12 12 13 15 19 22 22 25 25 27 28 21 14 21 24 21 17 17 17